Regional Weather Roundup
Issued by NWS

Home | Current Version | Previous Version | Text Only | Print | Product List | Glossary Off
Versions: 1 2 3 4 5 6 7 8 9 10 11 12 13 14 15 16 17 18 19 20 21 22 23 24 25 26 27 28 29 30 31 32 33 34 35 36 37 38 39 40 41 42 43 44 45 46 47 48 49 50

000
ASUS43 KTOP 230708
RWRKS

WEATHER ROUNDUP FOR KANSAS
NATIONAL WEATHER SERVICE GOODLAND KS
100 AM CST SUN NOV 23 2014

NOTE:  "FAIR" INDICATES FEW OR NO CLOUDS BELOW 12,000 FEET WITH NO
SIGNIFICANT WEATHER AND/OR OBSTRUCTIONS TO VISIBILITY.

KSZ001>006-013>018-027>032-041>047-230800-
NORTHWEST KANSAS

CITY           SKY/WX    TMP DP  RH WIND       PRES   REMARKS
GOODLAND       CLOUDY    42  24  49 E9        29.47F
HAYS           CLOUDY    54  45  71 S22G31    29.49F
HILL CITY      CLOUDY    52  48  86 S7        29.48F
RUSSELL        CLOUDY    54  49  83 S24       29.49F
$$

KSZ061>065-074>080-084>089-230800-
SOUTHWEST KANSAS

CITY           SKY/WX    TMP DP  RH WIND       PRES   REMARKS
DODGE CITY     CLOUDY    51  46  83 S18G26    29.50F
ELKHART          N/A    N/A N/A N/A MISG        N/A
GARDEN CITY    CLOUDY    46  46 100 S12       29.47F
GREAT BEND     MOCLDY    52  46  82 S18G26    29.52F
LIBERAL        PTCLDY    45  39  81 S8        29.52F
PRATT          CLOUDY    52  48  87 S18       29.55F
$$

KSZ066>073-081>083-090>101-230800-
SOUTHEAST KANSAS

CITY           SKY/WX    TMP DP  RH WIND       PRES   REMARKS
CHANUTE        CLOUDY    53  51  93 SE10      29.65F
COFFEYVILLE    CLOUDY    56  53  90 S10       29.66F
HUTCHINSON     CLOUDY    53  51  93 S17       29.57F FOG
MEDICINE LODGE   N/A     52  51  97 S8        29.57F
NEWTON         CLOUDY    54  48  82 S20G25    29.60F
PARSONS        CLOUDY    56  53  90 S8        29.66F
WICHITA INTL   LGT RAIN  55  52  89 S21       29.59F FOG
WICHITA JABRA  CLOUDY    55  53  93 S18G30    29.59F
WICHITA MCCONL CLOUDY    55  55 100 S18G29    29.59F
WINFIELD       CLOUDY    57  54  89 S15       29.62F
$$

KSZ007>012-019>026-033>040-048>060-102>105-230800-
NORTHEAST KANSAS

CITY           SKY/WX    TMP DP  RH WIND       PRES   REMARKS
CONCORDIA      CLOUDY    55  51  86 S18G31    29.52F
EMPORIA        CLOUDY    55  53  93 S14G23    29.61F
LAWRENCE       CLOUDY    55  51  86 S9        29.65F
MANHATTAN      CLOUDY    56  52  86 S13       29.58F
MARYSVILLE     CLOUDY    55  50  82 S14       29.57F
OLATHE IND     CLOUDY    53  51  93 SE13      29.66F
OLATHE EXE     CLOUDY    53  51  93 SE9       29.65F
SALINA         CLOUDY    56  51  84 S20G26    29.55F
TOPEKA BILLARD CLOUDY    57  53  86 S6        29.63F
TOPEKA FORBES  CLOUDY    57  52  83 S13       29.62F
$$



USA.gov is the U.S. government's official web portal to all federal, state and local government web resources and services.